This is the latest recevied weather packets stored in our database for station/object DL9GRB-13. If no packets are shown the sender has not sent any weather packets the latest 10 day(s).
| Time | Temp. | Humidity | Pressure | Rain* | Wind** | Luminosity | Snow |
|---|---|---|---|---|---|---|---|
| 1777871047 | 15° C | 84% | 1008.4 hPa | 0 mm | - | 59 W/m² | - |
| 1777870867 | 15° C | 84% | 1008.3 hPa | 0 mm | - | 63 W/m² | - |
| 1777870687 | 15° C | 84% | 1008.2 hPa | 0 mm | - | 50 W/m² | - |
| 1777870507 | 14.44° C | 84% | 1008.3 hPa | 0 mm | - | 38 W/m² | - |
| 1777870327 | 14.44° C | 84% | 1008.1 hPa | 0 mm | - | 25 W/m² | - |
| 1777870147 | 14.44° C | 85% | 1008.2 hPa | 0 mm | - | 42 W/m² | - |
| 1777869967 | 14.44° C | 85% | 1008 hPa | 0 mm | - | 45 W/m² | - |
| 1777869787 | 14.44° C | 85% | 1008.2 hPa | 0 mm | - | 45 W/m² | - |
| 1777869607 | 14.44° C | 85% | 1008.1 hPa | 0 mm | - | 43 W/m² | - |
| 1777869427 | 14.44° C | 85% | 1008.3 hPa | 0 mm | - | 40 W/m² | - |
| 1777869247 | 14.44° C | 85% | 1007.9 hPa | 0 mm | - | 39 W/m² | - |
| 1777869067 | 14.44° C | 85% | 1008.2 hPa | 0 mm | - | 34 W/m² | - |
| 1777868887 | 14.44° C | 85% | 1008.2 hPa | 0 mm | - | 28 W/m² | - |
| 1777868707 | 14.44° C | 85% | 1008 hPa | 0 mm | - | 24 W/m² | - |
| 1777868527 | 14.44° C | 85% | 1007.9 hPa | 0 mm | - | 18 W/m² | - |
| 1777868347 | 14.44° C | 85% | 1008.1 hPa | 0 mm | - | 18 W/m² | - |
| 1777868167 | 14.44° C | 85% | 1008 hPa | 0 mm | - | 20 W/m² | - |
| 1777867987 | 14.44° C | 85% | 1008.1 hPa | 0 mm | - | 19 W/m² | - |
| 1777867807 | 14.44° C | 85% | 1007.9 hPa | 0 mm | - | 20 W/m² | - |
| 1777867627 | 14.44° C | 85% | 1008.1 hPa | 0 mm | - | 17 W/m² | - |
| 1777867447 | 14.44° C | 85% | 1007.9 hPa | 0 mm | - | 16 W/m² | - |
| 1777867267 | 14.44° C | 85% | 1008 hPa | 0 mm | - | 13 W/m² | - |
| 1777867087 | 14.44° C | 85% | 1008.1 hPa | 0 mm | - | 11 W/m² | - |
| 1777866907 | 14.44° C | 85% | 1008 hPa | 0 mm | - | 9 W/m² | - |
| 1777866727 | 14.44° C | 84% | 1008 hPa | 0 mm | - | 8 W/m² | - |
* Rain latest hour (hover to see other rain measurements)
** Current wind speed in m/s (hover to see current wind gust speed)